Vertical_Velocity
-2 1 -1 -0 2 -1 -1 -1 2 0 1 -2 1 -0 1 -1 -1 -2 -1 -2 -2 -3 -2 -2 2 2 0 1 3 -5 -1 0 -4 -3 -1 3 -3 -3 0 -2 1 1 1 1 -3 3 -15
1 2 2 -2 -1 -2 -1 -3 -2 2 -1 1 -2 -1 1 -0 -0 -1 0 -0 -2 -2 -1 -3 0 -1 1 -3 9 -4 -2 -2 -2 -1 -1 0 -2 -2 1 -3 1 4 -4 3 4 6 2
-3 0 -0 6 2 -2 1 0 -1 1 0 -3 1 2 -1 1 -1 2 -0 -1 1 -3 -1 -0 -4 -1 0 -3 4 3 2 -2 -1 -4 -2 2 -3 -0 -1 0 2 5 -1 1 4 2 -7
3 1 -3 -2 2 2 -1 1 4 -1 -3 0 -4 -0 1 1 -1 2 -1 -2 -2 -2 -1 -0 -0 0 -0 0 7 -1 3 -2 -1 1 -1 1 -3 -2 -3 -0 0 3 -1 1 2 2 -1
-2 -1 -1 -2 -1 2 -0 -0 -0 5 1 -2 0 -1 2 -1 2 -0 1 -4 -1 -4 -0 -0 -0 -2 4 -1 -3 3 3 2 -1 -0 -1 0 0 -1 -1 -4 1 0 3 -0 -1 -0 1
1 2 1 0 -1 -2 2 2 -3 -1 4 -3 1 1 -1 3 -3 -1 2 -5 -4 -1 0 -3 -0 -0 2 3 5 -7 5 0 -1 -1 -2 0 -3 -2 -3 -3 -0 -1 -2 -1 -2 0 3
3 0 2 2 -1 2 -3 0 2 1 -0 4 -6 -2 1 -1 4 -2 2 -3 1 -4 -4 4 -1 -6 5 1 -0 -2 9 2 -2 2 -1 -2 -3 -7 2 -3 4 -1 -1 -2 1 -2 5
-3 2 2 2 3 -0 -1 -1 1 2 2 6 -1 -6 -0 -0 -0 4 -1 3 -4 -4 -11 2 -1 -5 -4 6 -3 1 12 1 -6 1 -2 -2 1 -0 -5 -4 3 0 1 0 -2 -1 -6
-2 -3 -1 1 1 4 2 -1 -0 1 -1 4 9 -3 -3 1 -1 2 1 -3 1 1 -7 5 -3 -5 9 -2 2 -6 6 7 1 1 -3 -1 1 2 3 -0 11 -2 2 5 2 -1 0
-4 -5 -2 1 -0 -3 4 8 -0 -1 -2 2 6 7 -1 1 0 4 -0 -5 1 1 -4 -13 -4 -7 -3 3 -5 0 8 12 1 2 -1 -2 1 -2 -1 -6 3 8 -4 4 -7 2 -1
0 -2 -3 -6 3 3 -3 1 10 1 -0 -2 4 5 2 5 3 3 2 -1 -2 -0 2 2 4 -4 -4 -2 2 -14 11 10 2 -4 -5 -3 4 3 0 -1 -0 3 6 7 -3 -0 2
-1 1 -1 -3 -2 -1 1 2 -2 9 9 4 -4 7 4 -5 3 3 2 -2 4 3 -14 5 6 1 1 2 4 8 1 7 7 9 2 -1 1 -2 -2 2 1 3 6 -0 -2 1 1
-3 -3 1 0 -2 -2 3 3 -1 4 10 9 9 4 4 -5 4 3 6 6 4 1 -2 2 7 -3 5 -1 9 5 -5 -4 -4 5 -0 2 -3 -0 1 -0 2 -3 5 -3 2 1 -2
0 -2 0 -2 0 -2 3 1 2 -1 2 1 10 12 4 1 9 6 3 11 7 2 -16 3 6 3 -4 1 5 1 7 -1 1 5 1 -4 0 1 -1 1 -2 1 3 -5 -2 -1 -1
-6 -2 -1 1 -3 -2 0 3 -1 -1 3 15 -4 7 1 10 10 14 5 5 -9 -3 1 -6 7 -4 8 -1 7 3 2 2 -4 -5 -3 -2 -4 2 6 5 0 -8 -3 3 1 -1 0
0 -1 -5 4 3 -2 -2 3 1 7 -1 3 -1 -12 8 27 16 19 8 -18 -3 -3 -5 -5 -3 1 5 -3 5 12 2 -6 -6 -2 6 -4 3 -0 2 4 1 -1 5 -0 -2 -1 -0
5 1 2 -0 3 7 -2 7 4 5 -5 3 29 -14 4 20 31 25 -47 -2 -2 2 -7 0 -4 -1 -6 5 -2 -4 -3 4 3 2 5 5 4 -3 6 -4 -10 -3 -5 -0 2 -1 -2
6 9 6 2 4 1 3 1 9 0 11 -0 24 -15 -18 15 11 2 -14 5 12 -5 -1 -1 -5 -4 2 2 2 4 -12 -2 -3 -6 -10 -2 3 0 -8 1 5 6 0 8 0 -3 1
7 4 9 13 14 10 7 5 13 -1 -2 2 3 13 24 -5 -5 -33 37 -2 -2 1 8 4 -9 -1 -0 1 3 3 0 3 -2 -4 -20 -10 -3 3 4 5 6 0 -3 -1 3 2 -4
0 -3 -7 -0 3 17 7 5 12 1 1 3 23 15 32 -31 9 42 4 -6 -1 -3 3 9 -9 3 3 -2 8 6 0 2 -1 6 14 16 1 -10 -18 -16 -4 -5 -0 2 7 5 -7
1 -1 -2 0 -3 12 9 4 12 3 2 6 8 -6 -1 -55 -13 -23 22 15 5 -20 -1 6 -5 -8 -1 -2 2 -3 4 5 2 -1 7 12 -4 2 -1 -1 6 0 0 0 -3 -0 -0
-0 -1 3 -3 -2 8 35 8 14 12 -1 22 -7 -29 -7 -1 1 32 0 -8 6 2 -5 -3 -8 2 4 -11 -6 9 5 4 7 8 3 -5 -10 -2 -2 3 3 -6 7 2 3 4 0
5 -0 4 0 -1 2 1 13 15 18 -6 -6 -1 -3 -5 28 -5 6 -26 7 14 6 5 7 13 2 -1 -15 13 6 1 3 5 -1 6 15 -2 -2 -7 1 2 13 -16 -3 2 0 1
2 3 3 2 2 3 -3 14 -0 11 -28 2 -5 9 11 8 -0 -22 -5 5 -0 -1 -2 -2 -4 -3 -8 3 6 4 2 0 2 0 2 -5 8 10 2 7 1 -15 -2 -1 -2 1 0
1 1 2 2 3 3 -2 25 3 -7 0 3 3 4 -11 4 12 17 -4 5 -0 4 8 8 3 1 -1 -5 5 -2 -4 -2 -6 -0 -0 0 9 1 -2 -3 -8 3 -9 -6 0 -25 1
0 -2 6 1 3 3 -6 9 7 2 -0 3 8 7 3 9 3 17 -4 -4 -15 5 5 -4 2 2 -3 1 -2 4 -3 -10 0 -1 -0 -0 5 17 3 2 -4 -11 1 -0 -2 -39 2
7 -4 -0 3 1 -3 -10 0 15 -2 4 -1 1 0 1 -2 3 -2 -9 -11 6 5 4 2 0 -5 2 1 -1 -2 1 -1 -8 0 -7 -1 3 -2 -2 -2 -4 -3 -1 -0 10 -69 3
0 0 2 0 -1 -4 -2 31 -0 3 0 -0 -11 2 6 4 -4 9 12 1 -12 -11 2 3 6 -7 9 9 2 -5 2 -4 -7 4 -2 -7 -3 -3 7 4 -10 -3 -1 -2 4 -6 4
6 -0 3 -2 -4 -11 16 9 -2 3 3 -5 3 0 -7 -6 27 24 7 0 -16 10 -8 -20 14 -7 -5 -8 -3 1 -4 10 -15 -14 4 3 -6 -15 -6 -26 1 -4 -5 -0 -6 -3 -0
Height
3112 3112 3113 3115 3116 3116 3117 3118 3118 3120 3121 3122 3123 3126 3127 3128 3129 3130 3130 3130 3131 3131 3132 3133 3132 3131 3131 3130 3129 3129 3129 3129 3128 3128 3129 3130 3130 3131 3131 3130 3130 3130 3130 3128 3129 3129 3129
3104 3105 3105 3107 3108 3110 3111 3112 3113 3114 3115 3117 3118 3119 3120 3121 3122 3124 3124 3125 3124 3127 3127 3129 3129 3128 3127 3127 3126 3126 3127 3127 3127 3127 3129 3130 3131 3131 3131 3130 3130 3129 3128 3128 3129 3128 3130
3092 3094 3097 3098 3100 3102 3103 3105 3107 3108 3109 3111 3112 3113 3114 3114 3115 3117 3117 3119 3119 3120 3122 3124 3124 3124 3123 3124 3123 3123 3124 3125 3126 3127 3128 3129 3130 3131 3131 3130 3129 3128 3128 3127 3128 3128 3131
3081 3083 3085 3088 3091 3094 3095 3097 3100 3102 3104 3105 3106 3107 3108 3109 3109 3109 3111 3112 3114 3116 3117 3118 3119 3119 3119 3119 3120 3121 3122 3123 3124 3126 3127 3128 3129 3130 3130 3130 3129 3128 3128 3128 3128 3128 3130
3068 3071 3073 3076 3079 3082 3086 3090 3092 3096 3097 3099 3101 3102 3103 3103 3104 3104 3105 3107 3108 3110 3111 3113 3115 3115 3115 3116 3117 3119 3120 3121 3122 3124 3125 3126 3128 3128 3129 3129 3129 3128 3128 3128 3128 3128 3129
3054 3056 3060 3063 3067 3071 3075 3079 3084 3088 3091 3094 3095 3097 3098 3099 3100 3100 3101 3103 3103 3105 3106 3108 3109 3113 3111 3111 3112 3115 3116 3118 3120 3121 3124 3125 3125 3125 3127 3128 3128 3127 3128 3128 3128 3130 3129
3037 3040 3044 3048 3053 3058 3062 3067 3073 3078 3083 3087 3090 3092 3093 3094 3094 3096 3097 3098 3101 3101 3100 3103 3104 3105 3107 3108 3110 3111 3114 3115 3117 3119 3121 3122 3123 3123 3125 3126 3127 3127 3127 3127 3128 3129 3128
3023 3024 3027 3031 3036 3042 3048 3054 3060 3067 3073 3079 3082 3086 3089 3089 3090 3091 3092 3093 3095 3094 3093 3095 3097 3099 3102 3104 3106 3109 3111 3111 3113 3116 3119 3121 3121 3122 3123 3125 3126 3126 3126 3127 3127 3126 3127
3011 3012 3013 3016 3019 3024 3031 3039 3047 3054 3062 3068 3074 3078 3083 3084 3085 3088 3088 3089 3091 3088 3087 3088 3090 3091 3096 3099 3101 3104 3110 3108 3110 3113 3116 3118 3120 3121 3122 3123 3124 3124 3125 3125 3125 3123 3124
2999 3001 3001 3003 3005 3008 3014 3022 3031 3039 3048 3057 3064 3069 3074 3078 3082 3083 3084 3087 3087 3085 3084 3082 3081 3084 3089 3092 3094 3101 3105 3109 3107 3110 3113 3116 3117 3118 3120 3120 3123 3122 3122 3123 3123 3123 3123
2983 2986 2989 2992 2994 2997 3000 3006 3013 3023 3034 3043 3053 3061 3066 3069 3073 3078 3081 3083 3083 3084 3087 3075 3072 3075 3080 3086 3090 3094 3101 3104 3104 3106 3110 3113 3113 3115 3117 3118 3120 3122 3121 3121 3121 3121 3122
2965 2968 2973 2978 2981 2986 2990 2994 2999 3007 3016 3028 3039 3049 3056 3060 3067 3073 3074 3078 3081 3086 3076 3070 3068 3069 3075 3079 3084 3091 3097 3100 3104 3105 3105 3108 3110 3112 3113 3115 3116 3118 3119 3118 3119 3119 3121
2951 2953 2957 2962 2967 2972 2976 2982 2987 2994 3003 3009 3022 3035 3045 3051 3059 3066 3068 3071 3079 3073 3068 3068 3066 3066 3069 3074 3080 3085 3089 3092 3097 3100 3100 3104 3107 3108 3110 3111 3112 3115 3117 3119 3119 3118 3118
2935 2937 2940 2946 2951 2957 2963 2969 2976 2983 2989 2998 3005 3017 3030 3040 3050 3056 3061 3065 3063 3055 3061 3064 3065 3063 3065 3071 3078 3080 3085 3088 3093 3097 3098 3101 3105 3105 3107 3108 3109 3112 3115 3116 3117 3117 3116
2918 2921 2925 2930 2935 2941 2949 2956 2962 2973 2977 2987 2996 3000 3013 3027 3038 3046 3051 3054 3040 3045 3053 3059 3061 3061 3065 3067 3074 3076 3080 3082 3087 3092 3096 3097 3101 3102 3104 3105 3107 3109 3112 3113 3112 3114 3115
2899 2903 2908 2913 2920 2927 2934 2941 2949 2960 2968 2977 2984 2991 2997 3013 3026 3034 3039 3033 3034 3038 3047 3052 3054 3059 3061 3062 3068 3071 3075 3076 3081 3087 3092 3096 3098 3099 3101 3102 3104 3106 3109 3111 3110 3112 3112
2879 2884 2889 2897 2904 2912 2920 2930 2938 2948 2957 2970 2975 2981 2988 3000 3014 3021 3018 3017 3025 3033 3040 3049 3048 3054 3057 3058 3062 3065 3069 3073 3078 3082 3088 3092 3095 3098 3098 3098 3100 3103 3104 3106 3107 3107 3107
2859 2865 2871 2879 2887 2896 2905 2916 2926 2937 2948 2958 2964 2967 2979 2992 3002 3002 3000 3007 3017 3025 3035 3038 3043 3051 3053 3056 3057 3061 3064 3069 3073 3077 3082 3088 3090 3091 3095 3096 3097 3098 3100 3102 3102 3104 3103
2842 2847 2853 2861 2870 2880 2890 2902 2913 2924 2934 2945 2952 2960 2966 2983 2988 2990 2994 3000 3009 3019 3026 3029 3038 3047 3049 3052 3054 3056 3060 3066 3070 3072 3077 3083 3084 3087 3089 3092 3092 3093 3096 3098 3098 3098 3097
2823 2830 2838 2846 2853 2864 2876 2887 2900 2911 2922 2934 2944 2949 2955 2968 2979 2984 2989 2991 2999 3010 3019 3025 3033 3040 3044 3048 3050 3052 3056 3062 3066 3069 3074 3077 3079 3080 3082 3084 3089 3090 3090 3091 3093 3093 3092
2805 2812 2820 2830 2839 2849 2862 2874 2887 2898 2909 2922 2929 2934 2939 2944 2964 2975 2981 2985 2991 3000 3010 3020 3024 3032 3039 3046 3048 3049 3052 3057 3061 3065 3069 3071 3073 3075 3077 3079 3081 3082 3084 3086 3086 3087 3087
2784 2793 2804 2815 2826 2837 2849 2862 2874 2887 2900 2911 2918 2925 2936 2940 2955 2966 2972 2974 2980 2994 3002 3008 3014 3026 3034 3039 3045 3046 3047 3051 3055 3059 3063 3066 3067 3070 3071 3073 3075 3076 3078 3079 3081 3081 3080
2762 2775 2787 2800 2814 2826 2839 2850 2864 2876 2888 2897 2907 2920 2930 2932 2941 2956 2956 2971 2980 2991 2998 3005 3012 3020 3027 3035 3040 3041 3043 3047 3050 3052 3056 3059 3061 3064 3066 3067 3069 3068 3070 3073 3075 3075 3076
2743 2757 2772 2787 2801 2816 2829 2839 2855 2867 2878 2889 2898 2913 2921 2928 2933 2942 2956 2969 2976 2981 2994 3003 3010 3016 3025 3031 3034 3037 3039 3041 3044 3046 3050 3053 3056 3059 3061 3062 3064 3062 3065 3068 3069 3069 3069
2732 2745 2761 2777 2793 2808 2821 2833 2848 2862 2876 2885 2893 2906 2920 2928 2934 2941 2952 2961 2975 2984 2991 2999 3007 3014 3021 3025 3027 3031 3034 3036 3036 3040 3044 3047 3051 3055 3055 3056 3055 3055 3058 3062 3064 3060 3063
2727 2741 2757 2772 2787 2802 2815 2829 2845 2860 2871 2881 2893 2906 2920 2928 2931 2940 2947 2955 2967 2975 2986 2991 3002 3008 3016 3020 3024 3023 3026 3032 3033 3034 3038 3042 3046 3050 3049 3050 3048 3050 3055 3057 3058 3048 3053
2727 2742 2757 2771 2785 2799 2813 2828 2843 2857 2868 2878 2891 2905 2917 2924 2931 2937 2940 2950 2963 2973 2980 2986 2996 3004 3009 3012 3018 3019 3020 3023 3029 3029 3031 3036 3039 3040 3042 3043 3042 3046 3049 3052 3053 3046 3046
2737 2748 2761 2774 2786 2800 2814 2828 2843 2855 2867 2878 2890 2904 2913 2919 2928 2930 2939 2945 2955 2965 2972 2980 2994 2997 3001 3005 3011 3013 3014 3016 3024 3025 3025 3029 3032 3034 3036 3038 3038 3040 3042 3044 3043 3041 3042
2746 2757 2768 2779 2790 2802 2817 2831 2844 2856 2868 2879 2890 2901 2910 2920 2924 2926 2931 2938 2945 2961 2971 2975 2981 2986 2993 2999 3003 3007 3010 3012 3017 3019 3020 3023 3025 3027 3030 3030 3032 3034 3036 3035 3035 3035 3036